• In Deutschland
  • Länderverzeichnis
  • Für 7 Tage
  • Wassertemperatur
  • Satellitenkarten
  • Wetterkarte
  • Widgets
  • user-avatar
    Anmelden

    Stündliche Wetter Araras

    Heute, 24 April, Dienstag

    Zeit Temperatur Niederschläge Wind Luftdruck Luftfeuchtigkeit
    00:00 +18°C° 0 mm 2 m/S 709 mmHg 85%
    01:00 +19°C° 0 mm 1 m/S 709 mmHg 86%
    02:00 +19°C° 0 mm 1 m/S 709 mmHg 87%
    03:00 +18°C° 0 mm 1 m/S 709 mmHg 89%
    04:00 +18°C° 0 mm 1 m/S 709 mmHg 89%
    05:00 +18°C° 0 mm 1 m/S 709 mmHg 90%
    06:00 +16°C° 0 mm 1 m/S 709 mmHg 90%
    07:00 +19°C° 0 mm 1 m/S 709 mmHg 84%
    08:00 +21°C° 0 mm 1 m/S 710 mmHg 78%
    09:00 +23°C° 0 mm 1 m/S 711 mmHg 71%
    10:00 +25°C° 0 mm 1 m/S 711 mmHg 66%
    11:00 +26°C° 0 mm 1 m/S 711 mmHg 61%
    12:00 +28°C° 0 mm 1 m/S 710 mmHg 55%
    13:00 +28°C° 0 mm 1 m/S 710 mmHg 54%
    14:00 +29°C° 0 mm 1 m/S 710 mmHg 52%
    15:00 +29°C° 0 mm 1 m/S 709 mmHg 51%
    16:00 +27°C° 0 mm 1 m/S 709 mmHg 56%
    17:00 +25°C° 0 mm 1 m/S 709 mmHg 62%
    18:00 +24°C° 0 mm 2 m/S 708 mmHg 67%
    19:00 +23°C° 0 mm 2 m/S 709 mmHg 71%
    20:00 +21°C° 0 mm 2 m/S 709 mmHg 75%
    21:00 +20°C° 0 mm 2 m/S 710 mmHg 78%
    22:00 +20°C° 0 mm 2 m/S 710 mmHg 81%
    23:00 +19°C° 0 mm 2 m/S 710 mmHg 83%

    Morgen, 25 April, Mittwoch

    Zeit Temperatur Niederschläge Wind Luftdruck Luftfeuchtigkeit
    00:00 +19°C° 0 mm 2 m/S 709 mmHg 86%
    01:00 +18°C° 0 mm 2 m/S 709 mmHg 87%
    02:00 +19°C° 0 mm 1 m/S 709 mmHg 88%
    03:00 +19°C° 0 mm 1 m/S 709 mmHg 90%
    04:00 +19°C° 0 mm 1 m/S 709 mmHg 90%
    05:00 +18°C° 0 mm 1 m/S 709 mmHg 91%
    06:00 +18°C° 0 mm 1 m/S 709 mmHg 91%
    07:00 +20°C° 0 mm 1 m/S 710 mmHg 86%
    08:00 +21°C° 0 mm 2 m/S 710 mmHg 80%
    09:00 +23°C° 0 mm 2 m/S 711 mmHg 74%
    10:00 +25°C° 0 mm 2 m/S 711 mmHg 68%
    11:00 +27°C° 0 mm 2 m/S 711 mmHg 63%
    12:00 +28°C° 0 mm 2 m/S 711 mmHg 57%
    13:00 +28°C° 0 mm 2 m/S 711 mmHg 55%
    14:00 +29°C° 0 mm 1 m/S 710 mmHg 54%
    15:00 +29°C° 0 mm 1 m/S 709 mmHg 52%
    16:00 +27°C° 0 mm 1 m/S 709 mmHg 57%
    17:00 +26°C° 0 mm 1 m/S 709 mmHg 62%
    18:00 +24°C° 0 mm 1 m/S 709 mmHg 67%
    19:00 +23°C° 0 mm 1 m/S 709 mmHg 71%
    20:00 +23°C° 0 mm 1 m/S 709 mmHg 74%
    21:00 +22°C° 0 mm 1 m/S 710 mmHg 78%
    22:00 +21°C° 0 mm 1 m/S 710 mmHg 80%
    23:00 +21°C° 0 mm 1 m/S 710 mmHg 83%

    übermorgen, 26 April, Donnerstag

    Zeit Temperatur Niederschläge Wind Luftdruck Luftfeuchtigkeit
    00:00 +20°C° 0 mm 1 m/S 709 mmHg 86%
    01:00 +20°C° 0 mm 1 m/S 709 mmHg 87%
    02:00 +20°C° 0 mm 1 m/S 709 mmHg 89%
    03:00 +19°C° 0 mm 1 m/S 708 mmHg 90%
    04:00 +19°C° 0 mm 1 m/S 708 mmHg 91%
    05:00 +19°C° 0 mm 1 m/S 708 mmHg 91%
    06:00 +18°C° 0 mm 1 m/S 708 mmHg 92%
    07:00 +20°C° 0 mm 1 m/S 709 mmHg 85%
    08:00 +22°C° 0 mm 1 m/S 710 mmHg 79%
    09:00 +24°C° 0 mm 2 m/S 711 mmHg 72%
    10:00 +26°C° 0 mm 2 m/S 711 mmHg 66%
    11:00 +27°C° 0 mm 2 m/S 710 mmHg 61%
    12:00 +29°C° 0 mm 2 m/S 710 mmHg 55%
    13:00 +29°C° 0 mm 1 m/S 710 mmHg 54%
    14:00 +29°C° 0 mm 1 m/S 709 mmHg 52%
    15:00 +30°C° 0 mm 1 m/S 708 mmHg 50%
    16:00 +28°C° 0 mm 1 m/S 708 mmHg 56%
    17:00 +26°C° 0 mm 1 m/S 708 mmHg 61%
    18:00 +22°C° 0 mm 0 m/S 707 mmHg 66%
    19:00 +24°C° 0 mm 1 m/S 708 mmHg 70%
    20:00 +23°C° 0 mm 1 m/S 708 mmHg 73%
    21:00 +22°C° 0 mm 1 m/S 708 mmHg 76%
    22:00 +22°C° 0 mm 1 m/S 709 mmHg 79%
    23:00 +21°C° 0 mm 1 m/S 709 mmHg 82%

    27 April, Freitag

    Zeit Temperatur Niederschläge Wind Luftdruck Luftfeuchtigkeit
    00:00 +21°C° 0 mm 1 m/S 709 mmHg 84%
    01:00 +20°C° 0 mm 1 m/S 709 mmHg 86%
    02:00 +20°C° 0 mm 1 m/S 708 mmHg 87%
    03:00 +20°C° 0 mm 1 m/S 708 mmHg 89%
    04:00 +19°C° 0 mm 1 m/S 708 mmHg 89%
    05:00 +19°C° 0 mm 1 m/S 708 mmHg 90%
    06:00 +19°C° 0 mm 1 m/S 708 mmHg 91%
    07:00 +21°C° 0 mm 1 m/S 709 mmHg 85%
    08:00 +23°C° 0 mm 2 m/S 710 mmHg 78%
    09:00 +24°C° 0 mm 2 m/S 710 mmHg 72%
    10:00 +26°C° 0 mm 2 m/S 710 mmHg 66%
    11:00 +28°C° 0 mm 2 m/S 710 mmHg 60%
    12:00 +29°C° 0 mm 2 m/S 710 mmHg 54%
    13:00 +29°C° 0 mm 2 m/S 709 mmHg 53%
    14:00 +30°C° 0 mm 2 m/S 709 mmHg 51%
    15:00 +30°C° 0 mm 1 m/S 708 mmHg 49%
    16:00 +28°C° 0 mm 1 m/S 708 mmHg 55%
    17:00 +26°C° 0 mm 1 m/S 708 mmHg 60%
    18:00 +23°C° 0 mm 0 m/S 708 mmHg 65%
    19:00 +24°C° 0 mm 1 m/S 708 mmHg 68%
    20:00 +23°C° 0 mm 1 m/S 709 mmHg 71%
    21:00 +22°C° 0 mm 1 m/S 709 mmHg 74%
    22:00 +22°C° 0 mm 1 m/S 709 mmHg 77%
    23:00 +21°C° 0 mm 1 m/S 709 mmHg 79%

    28 April, Samstag

    Zeit Temperatur Niederschläge Wind Luftdruck Luftfeuchtigkeit
    00:00 +21°C° 0 mm 1 m/S 709 mmHg 82%
    01:00 +21°C° 0 mm 1 m/S 709 mmHg 84%
    02:00 +20°C° 0 mm 1 m/S 708 mmHg 85%
    03:00 +20°C° 0 mm 1 m/S 708 mmHg 87%
    04:00 +20°C° 0 mm 1 m/S 708 mmHg 88%
    05:00 +20°C° 0 mm 1 m/S 709 mmHg 88%
    06:00 +20°C° 0 mm 1 m/S 709 mmHg 89%
    07:00 +21°C° 0 mm 1 m/S 709 mmHg 83%
    08:00 +23°C° 0 mm 2 m/S 710 mmHg 77%
    09:00 +25°C° 0 mm 2 m/S 710 mmHg 72%
    10:00 +26°C° 0 mm 2 m/S 710 mmHg 66%
    11:00 +28°C° 0 mm 2 m/S 710 mmHg 61%
    12:00 +29°C° 0 mm 2 m/S 710 mmHg 56%
    13:00 +29°C° 0 mm 2 m/S 709 mmHg 54%
    14:00 +30°C° 0 mm 1 m/S 709 mmHg 52%
    15:00 +30°C° 0 mm 1 m/S 708 mmHg 50%
    16:00 +28°C° 0 mm 1 m/S 708 mmHg 56%
    17:00 +26°C° 0 mm 1 m/S 708 mmHg 61%
    18:00 +23°C° 0 mm 0 m/S 708 mmHg 67%
    19:00 +24°C° 0 mm 1 m/S 708 mmHg 70%
    20:00 +23°C° 0 mm 1 m/S 709 mmHg 73%
    21:00 +23°C° 0 mm 1 m/S 709 mmHg 76%
    22:00 +22°C° 0 mm 1 m/S 709 mmHg 78%
    23:00 +22°C° 0 mm 1 m/S 709 mmHg 80%

    29 April, Sonntag

    Zeit Temperatur Niederschläge Wind Luftdruck Luftfeuchtigkeit
    00:00 +21°C° 0 mm 1 m/S 708 mmHg 83%
    01:00 +21°C° 0 mm 1 m/S 708 mmHg 84%
    02:00 +20°C° 0 mm 1 m/S 708 mmHg 86%
    03:00 +20°C° 0 mm 1 m/S 708 mmHg 87%
    04:00 +20°C° 0 mm 1 m/S 708 mmHg 88%
    05:00 +20°C° 0 mm 1 m/S 708 mmHg 88%
    06:00 +19°C° 0 mm 1 m/S 708 mmHg 89%
    07:00 +21°C° 0 mm 1 m/S 709 mmHg 83%
    08:00 +23°C° 0 mm 1 m/S 710 mmHg 77%
    09:00 +25°C° 0 mm 1 m/S 710 mmHg 71%
    10:00 +27°C° 0,2 mm 1 m/S 710 mmHg 66%
    11:00 +28°C° 0,2 mm 1 m/S 710 mmHg 61%
    12:00 +30°C° 0,2 mm 1 m/S 710 mmHg 55%
    13:00 +28°C° 0 mm 0 m/S 709 mmHg 53%
    14:00 +28°C° 0 mm 0 m/S 708 mmHg 51%
    15:00 +28°C° 0 mm 0 m/S 708 mmHg 49%
    16:00 +27°C° 0 mm 0 m/S 708 mmHg 54%
    17:00 +25°C° 0 mm 0 m/S 708 mmHg 58%
    18:00 +25°C° 0 mm 1 m/S 708 mmHg 62%
    19:00 +25°C° 0,1 mm 1 m/S 708 mmHg 66%
    20:00 +24°C° 0,1 mm 1 m/S 709 mmHg 69%
    21:00 +23°C° 0,1 mm 1 m/S 709 mmHg 73%
    22:00 +21°C° 0 mm 2 m/S 709 mmHg 76%
    23:00 +21°C° 0 mm 2 m/S 709 mmHg 80%
    Mehr zeigen